Location: Kergonan
(48.2337°N, 4.5518°W)
Time: 19:49:07
(UTC+00:00)

Cosmos 1726 Rocket - Pass Details

Date: 18 January 2020
Orbit: 602 x 630 km, 82.5° (Epoch: 28 February)

Event Time Altitude Azimuth Distance (km) Brightness Sun altitude
Rises 06:21:57 0° 182° (S) 2,909 7.1 -16.3°
Reaches altitude 10° 06:24:11 10° 181° (S) 2,005 6.3 -15.9°
Maximum altitude 06:28:37 73° 97° (E) 662 3.8 -15.2°
Drops below altitude 10° 06:33:04 10° 13° (NNE) 2,011 6.2 -14.5°
Sets 06:35:18 0° 12° (NNE) 2,918 7.0 -14.1°
